UCLSAT

Last updated on Sun Nov 19 2023 00:03:36 GMT+0000 (Coordinated Universal Time)

1 42765U 17036A 23322.30601333 .04987380 23271-5 12158-2 0 9990 2 42765 97.0977 3.6350 0005681 238.7537 121.3202 16.29362823358028

Satellite not in orbit

UCLSAT